Fort Indiantown Gap, PA

8:33 AM EST on November 19, 2017 (GMT -0500)
Muir Army Air Field

Weather History for KMUI - October, 2012

Change the Weather History Date:

Saturday, October 6, 2012

  Actual Average Record
Temperature  
Mean Temperature 56 °F -  
Max Temperature 65 °F 65 °F 87 °F (1997)
Min Temperature 49 °F 46 °F 35 °F (2003)
Degree Days  
Heating Degree Days 8    
Growing Degree Days 6 (Base 50)    
Moisture  
Dew Point 53 °F    
Average Humidity 92    
Maximum Humidity 100    
Minimum Humidity 50    
Precipitation  
Precipitation 0.00 in - - ()
Sea Level Pressure  
Sea Level Pressure 29.90 in    
Wind  
Wind Speed 1 mph (WNW)    
Max Wind Speed 17 mph    
Max Gust Speed 26 mph    
Visibility 2 miles    
Events Fog    
Averages and records for this station are not official NWS values.
T = Trace of Precipitation, MM = Missing Value Source: NWS Daily Summary

Daily Weather History Graph

Daily Weather History Graph

Search for Another Location

Airport or City:

Trip Planner

Search our weather history database for the weather conditions in past years. The results will help you decide how hot, cold, wet, or windy it might be!

Date:

Astronomy

Oct. 06, 2012 Rise Set
Actual Time 7:08 AM EDT 6:39 PM EDT
Civil Twilight 6:41 AM EDT 7:06 PM EDT
Nautical Twilight 6:09 AM EDT 7:38 PM EDT
Astronomical Twilight 5:37 AM EDT 8:09 PM EDT
Moon 10:52 PM EDT (10/6) 1:01 PM EDT (10/6)
Length of Visible Light 12h 25m
Length of Day
11h 31m
Waning Gibbous, 65% of the Moon is Illuminated
Oct 6
Waning Gibbous
Oct 8
Last Quarter
Oct 15
New
Oct 21
First Quarter
Oct 29
Full

Hourly Weather History & Observations

Time (EDT) Temp. Dew Point Humidity Pressure Visibility Wind Dir Wind Speed Gust Speed Precip Events Conditions
12:01 AM 57.2 °F 57.2 °F 100% 29.93 in 1.8 mi Calm Calm - N/A   Clear
12:02 AM 57.2 °F 57.2 °F 100% 29.93 in 1.5 mi Calm Calm - N/A   Clear
12:09 AM 57.2 °F 57.2 °F 100% 29.93 in 1.2 mi Calm Calm - N/A   Clear
12:10 AM 57.2 °F 57.2 °F 100% 29.93 in 1.5 mi Calm Calm - N/A   Clear
12:17 AM 57.2 °F 57.2 °F 100% 29.93 in 1.8 mi Calm Calm - N/A   Clear
12:24 AM 57.2 °F 57.2 °F 100% 29.93 in 1.5 mi Calm Calm - N/A   Clear
12:27 AM 57.2 °F 55.4 °F 94% 29.93 in 1.2 mi Calm Calm - N/A   Clear
12:29 AM 57.2 °F 55.4 °F 94% 29.93 in 1.0 mi Calm Calm - N/A   Clear
12:30 AM 57.2 °F 55.4 °F 94% 29.93 in 0.8 mi Calm Calm - N/A   Clear
12:39 AM 55.4 °F 55.4 °F 100% 29.93 in 1.0 mi Calm Calm - N/A   Clear
12:40 AM 55.4 °F 55.4 °F 100% 29.93 in 1.2 mi Calm Calm - N/A   Clear
12:41 AM 55.4 °F 55.4 °F 100% 29.93 in 2.0 mi Calm Calm - N/A   Clear
12:43 AM 55.4 °F 55.4 °F 100% 29.93 in 3.0 mi Calm Calm - N/A   Clear
12:55 AM 57.7 °F 57.4 °F 99% 29.92 in 4.0 mi Calm Calm - N/A   Clear
12:59 AM 57.2 °F 57.2 °F 100% 29.92 in 2.0 mi Calm Calm - N/A   Clear
1:00 AM 55.4 °F 55.4 °F 100% 29.92 in 1.8 mi Calm Calm - N/A   Clear
1:01 AM 55.4 °F 55.4 °F 100% 29.92 in 1.5 mi Calm Calm - N/A   Clear
1:05 AM 55.4 °F 55.4 °F 100% 29.92 in 1.2 mi Calm Calm - N/A   Clear
1:08 AM 55.4 °F 55.4 °F 100% 29.92 in 1.5 mi Calm Calm - N/A   Clear
1:09 AM 55.4 °F 55.4 °F 100% 29.92 in 1.8 mi Calm Calm - N/A   Clear
1:10 AM 55.4 °F 55.4 °F 100% 29.92 in 2.0 mi Calm Calm - N/A   Clear
1:24 AM 53.6 °F 53.6 °F 100% 29.92 in 3.0 mi NNW 3.5 mph - N/A   Clear
1:32 AM 53.6 °F 53.6 °F 100% 29.92 in 2.5 mi Calm Calm - N/A   Clear
1:34 AM 53.6 °F 53.6 °F 100% 29.91 in 1.5 mi Calm Calm - N/A   Clear
1:35 AM 55.4 °F 53.6 °F 94% 29.91 in 1.2 mi Calm Calm - N/A   Clear
1:37 AM 55.4 °F 55.4 °F 100% 29.92 in 1.0 mi Calm Calm - N/A   Clear
1:41 AM 55.4 °F 55.4 °F 100% 29.92 in 0.8 mi Calm Calm - N/A   Clear
1:48 AM 53.6 °F 53.6 °F 100% 29.92 in 1.0 mi Calm Calm - N/A   Clear
1:52 AM 53.6 °F 53.6 °F 100% 29.92 in 1.2 mi Calm Calm - N/A   Clear
1:55 AM 54.3 °F 54.0 °F 99% 29.92 in 1.0 mi Calm Calm - N/A   Clear
1:56 AM 53.6 °F 53.6 °F 100% 29.92 in 0.8 mi Calm Calm - N/A   Clear
1:59 AM 53.6 °F 53.6 °F 100% 29.92 in 0.5 mi Calm Calm - N/A Fog Fog
2:27 AM 53.6 °F 53.6 °F 100% 29.90 in 0.2 mi Calm Calm - N/A Fog Fog
2:29 AM 53.6 °F 53.6 °F 100% 29.90 in 0.5 mi Calm Calm - N/A Fog Fog
2:49 AM 53.6 °F 53.6 °F 100% 29.89 in 0.8 mi Calm Calm - N/A   Clear
2:55 AM 55.0 °F 54.9 °F 99% 29.89 in 0.5 mi Calm Calm - N/A Fog Fog
3:07 AM 55.4 °F 53.6 °F 94% 29.88 in 0.8 mi Calm Calm - N/A   Clear
3:10 AM 53.6 °F 53.6 °F 100% 29.88 in 0.5 mi Calm Calm - N/A Fog Fog
3:25 AM 53.6 °F 53.6 °F 100% 29.88 in 0.8 mi Calm Calm - N/A   Clear
3:30 AM 53.6 °F 53.6 °F 100% 29.88 in 1.0 mi Calm Calm - N/A   Clear
3:31 AM 53.6 °F 53.6 °F 100% 29.88 in 0.8 mi Calm Calm - N/A   Clear
3:34 AM 53.6 °F 53.6 °F 100% 29.88 in 0.5 mi Calm Calm - N/A Fog Fog
3:42 AM 53.6 °F 51.8 °F 94% 29.88 in 0.8 mi Calm Calm - N/A   Clear
3:44 AM 53.6 °F 53.6 °F 100% 29.88 in 1.0 mi Calm Calm - N/A   Clear
3:46 AM 53.6 °F 53.6 °F 100% 29.88 in 0.8 mi Calm Calm - N/A   Clear
3:49 AM 53.6 °F 53.6 °F 100% 29.87 in 0.5 mi Calm Calm - N/A Fog Fog
3:54 AM 51.8 °F 51.8 °F 100% 29.88 in 0.2 mi Calm Calm - N/A Fog Fog
3:55 AM 52.3 °F 52.2 °F 99% 29.88 in 0.2 mi Calm Calm - N/A Fog Fog
4:44 AM 53.6 °F 53.6 °F 100% 29.86 in 0.5 mi Calm Calm - N/A Fog Fog
4:55 AM 54.3 °F 54.1 °F 99% 29.86 in 0.8 mi Calm Calm - N/A   Clear
5:03 AM 53.6 °F 53.6 °F 100% 29.86 in 0.5 mi Calm Calm - N/A Fog Fog
5:09 AM 53.6 °F 53.6 °F 100% 29.86 in 0.8 mi Calm Calm - N/A   Clear
5:16 AM 53.6 °F 53.6 °F 100% 29.85 in 0.5 mi Calm Calm - N/A Fog Fog
5:23 AM 51.8 °F 51.8 °F 100% 29.85 in 0.8 mi Calm Calm - N/A   Clear
5:27 AM 51.8 °F 51.8 °F 100% 29.85 in 1.0 mi Calm Calm - N/A   Clear
5:28 AM 51.8 °F 51.8 °F 100% 29.86 in 1.2 mi Calm Calm - N/A   Clear
5:30 AM 53.6 °F 51.8 °F 94% 29.86 in 1.5 mi Calm Calm - N/A   Clear
5:34 AM 53.6 °F 53.6 °F 100% 29.85 in 1.8 mi Calm Calm - N/A   Clear
5:39 AM 53.6 °F 51.8 °F 94% 29.85 in 1.5 mi Calm Calm - N/A   Scattered Clouds
5:42 AM 51.8 °F 51.8 °F 100% 29.85 in 1.2 mi Calm Calm - N/A   Scattered Clouds
5:45 AM 53.6 °F 51.8 °F 94% 29.85 in 1.0 mi Calm Calm - N/A   Scattered Clouds
5:46 AM 53.6 °F 51.8 °F 94% 29.85 in 0.8 mi Calm Calm - N/A   Scattered Clouds
5:48 AM 53.6 °F 51.8 °F 94% 29.85 in 0.5 mi Calm Calm - N/A Fog Fog
5:55 AM 52.2 °F 52.0 °F 99% 29.85 in 0.5 mi Calm Calm - N/A Fog Fog
6:00 AM 51.8 °F 51.8 °F 100% 29.85 in 0.8 mi Calm Calm - N/A   Partly Cloudy
6:02 AM 51.8 °F 51.8 °F 100% 29.85 in 0.5 mi Calm Calm - N/A Fog Fog
6:08 AM 51.8 °F 51.8 °F 100% 29.85 in 0.2 mi Calm Calm - N/A Fog Fog
6:32 AM 51.8 °F 51.8 °F 100% 29.85 in 0.5 mi Calm Calm - N/A Fog Fog
6:46 AM 51.8 °F 51.8 °F 100% 29.85 in 0.2 mi Calm Calm - N/A Fog Fog
6:55 AM 52.5 °F 52.2 °F 99% 29.85 in 0.2 mi Calm Calm - N/A Fog Fog
7:55 AM 53.6 °F 53.2 °F 99% 29.84 in 0.2 mi Calm Calm - N/A Fog Fog
8:25 AM 55.4 °F 55.4 °F 100% 29.84 in 0.5 mi Calm Calm - N/A Fog Fog
8:30 AM 55.4 °F 55.4 °F 100% 29.84 in 0.8 mi Calm Calm - N/A   Partly Cloudy
8:33 AM 57.2 °F 55.4 °F 94% 29.83 in 1.0 mi Calm Calm - N/A   Partly Cloudy
8:38 AM 57.2 °F 57.2 °F 100% 29.83 in 1.2 mi Calm Calm - N/A   Partly Cloudy
8:48 AM 59.0 °F 57.2 °F 94% 29.84 in 1.5 mi Calm Calm - N/A   Partly Cloudy
8:53 AM 59.0 °F 57.2 °F 94% 29.84 in 1.8 mi Calm Calm - N/A   Scattered Clouds
8:55 AM 58.5 °F 58.3 °F 99% 29.84 in 1.8 mi Calm Calm - N/A   Scattered Clouds
9:17 AM 59.0 °F 59.0 °F 100% 29.84 in 2.0 mi Calm Calm - N/A   Partly Cloudy
9:23 AM 59.0 °F 59.0 °F 100% 29.84 in 1.8 mi Calm Calm - N/A   Partly Cloudy
9:28 AM 59.0 °F 59.0 °F 100% 29.84 in 2.0 mi Calm Calm - N/A   Scattered Clouds
9:33 AM 59.0 °F 59.0 °F 100% 29.84 in 3.0 mi Calm Calm - N/A   Scattered Clouds
9:55 AM 61.7 °F 58.1 °F 88% 29.84 in 3.0 mi Calm Calm - N/A   Scattered Clouds
10:55 AM 62.2 °F 58.3 °F 87% 29.85 in 3.0 mi WSW 4.6 mph - N/A   Mostly Cloudy
11:55 AM 64.0 °F 58.5 °F 82% 29.86 in 3.0 mi Variable 6.9 mph - N/A   Haze
12:55 PM 63.0 °F 52.7 °F 69% 29.87 in 4.0 mi West 15.0 mph 23.0 mph N/A   Haze
1:55 PM 64.0 °F 50.5 °F 61% 29.89 in 4.0 mi West 12.7 mph 26.5 mph N/A   Haze
2:55 PM 64.2 °F 46.6 °F 53% 29.91 in 3.0 mi West 15.0 mph 21.9 mph N/A   Haze
3:52 PM 62.6 °F 44.6 °F 52% 29.94 in 2.5 mi West 10.4 mph - N/A   Haze
3:55 PM 62.2 °F 44.1 °F 51% 29.94 in 2.5 mi West 17.3 mph 25.3 mph N/A   Haze
4:55 PM 61.3 °F 42.3 °F 50% 29.94 in 2.5 mi West 10.4 mph 18.4 mph N/A   Haze
5:08 PM 60.8 °F 42.8 °F 52% 29.94 in 3.0 mi Variable 5.8 mph - N/A   Haze
5:28 PM 60.8 °F 42.8 °F 52% 29.95 in 2.5 mi Variable 5.8 mph - N/A   Haze
5:55 PM 58.6 °F 41.5 °F 53% 29.96 in 2.0 mi Variable 5.8 mph - N/A   Haze
6:55 PM 54.5 °F 45.0 °F 70% 29.98 in 2.5 mi NW 3.5 mph - N/A   Haze
6:56 PM 53.6 °F 44.6 °F 72% 29.98 in 3.0 mi NW 3.5 mph - N/A   Haze
7:55 PM 50.0 °F 45.0 °F 83% 30.00 in 4.0 mi Calm Calm - N/A   Haze
8:55 PM 49.3 °F 44.4 °F 83% 30.02 in 4.0 mi Calm Calm - N/A   Haze
9:55 PM 53.6 °F 39.7 °F 59% 30.05 in 3.0 mi West 5.8 mph - N/A   Haze
10:55 PM 53.1 °F 37.2 °F 55% 30.06 in 3.0 mi West 8.1 mph - N/A   Haze
11:55 PM 52.5 °F 36.5 °F 54% 30.06 in 5.0 mi NW 9.2 mph - N/A   Haze